Printer-friendly version

IAU Minor Planet Center

Minor Planet Center

(79) Eurynome

Orbital Elements

The following orbital elements are taken from MPC 22665:
   (79) Eurynome
Epoch 2002 May 6.0 TT = JDT 2452400.5    (M-c)          Goffin
M  70.79114              (2000.0)            P               Q
n   0.25782187     Peri.  200.58625     +0.67721265     -0.73488822
a   2.4448725      Node   206.82771     +0.68584060     +0.64836900
e   0.1925551      Incl.    4.62157     +0.26646895     +0.19888928
P   3.82           H    7.96          G   0.25
From 844 observations at 78 oppositions, 1863-1991, mean residual 1".05.
An explanation of the orbital elements is available.

These orbital elements are also available in forms suitable for loading into a number of popular planetarium-type software programs.


Ephemeris

The following ephemeris is at intervals of five days. A daily ephemeris covering the same time interval is also available.

Date    TT    R. A. (2000) Decl.     Delta      r     Elong.  Phase     V
2001 12 07    07 20.99   +14 39.0    1.197    2.080   144.5    16.0    10.7
2001 12 12    07 17.86   +14 29.4    1.175    2.088   150.1    13.6    10.6
2001 12 17    07 13.98   +14 23.0    1.159    2.096   155.8    11.1    10.5
2001 12 22    07 09.49   +14 19.8    1.148    2.104   161.4     8.6    10.4
2001 12 27    07 04.56   +14 19.7    1.143    2.113   166.7     6.2    10.3
2002 01 01    06 59.38   +14 22.4    1.145    2.121   170.7     4.3    10.2
2002 01 06    06 54.16   +14 27.8    1.153    2.130   171.4     4.0    10.2
2002 01 11    06 49.11   +14 35.6    1.168    2.139   168.1     5.4    10.3
2002 01 16    06 44.41   +14 45.3    1.188    2.149   163.1     7.7    10.5
2002 01 21    06 40.25   +14 56.7    1.215    2.158   157.6    10.0    10.6
2002 01 26    06 36.78   +15 09.3    1.248    2.168   152.1    12.3    10.8
2002 01 31    06 34.07   +15 22.8    1.287    2.177   146.6    14.4    10.9
2002 02 05    06 32.19   +15 36.9    1.330    2.187   141.2    16.4    11.1
2002 02 10    06 31.18   +15 51.2    1.378    2.197   136.0    18.2    11.2
2002 02 15    06 31.03   +16 05.4    1.429    2.207   131.0    19.7    11.3
2002 02 20    06 31.73   +16 19.3    1.485    2.217   126.2    21.1    11.5
2002 02 25    06 33.24   +16 32.5    1.543    2.228   121.6    22.2    11.6
2002 03 02    06 35.52   +16 44.9    1.605    2.238   117.2    23.2    11.7
2002 03 07    06 38.50   +16 56.1    1.668    2.249   112.9    24.0    11.8

Back to Bright Minor Planets

Astronomical Headlines Index


Valid HTML 4.01!